Theta_e
325 325 325 326 327 327 327 326 326 326 325 327 324 323 323 323 324 324 325 325 326 324 325 325 324 327 323 324 324 320 321 309 306 304 302 304 310 319 321 322 321 321 320 313 311 310 307 306 305 307 307 307 305 305 303 304 303 306 301 298 296 297 295 297 295 297 296 295 296 295 297 296 295 294 296 295 294 294 296 295 297 298 297 298 296 295 294 295
323 324 324 325 326 327 326 327 326 326 323 324 322 322 322 322 324 323 324 324 326 326 327 326 324 321 326 323 321 320 318 309 304 304 304 311 321 319 320 318 320 321 316 315 310 307 305 304 305 306 305 303 306 302 304 300 303 302 300 298 295 297 296 298 297 296 295 294 297 296 297 297 296 296 296 292 293 294 293 295 296 295 296 298 297 294 293 294
322 324 324 324 325 326 326 326 326 327 323 322 322 321 323 323 322 323 324 324 324 327 327 326 324 322 321 324 321 317 309 306 304 300 304 320 318 318 319 318 319 319 312 307 308 307 305 305 305 304 303 302 302 301 303 299 301 300 297 296 297 297 296 296 296 294 295 295 295 295 296 296 297 295 296 291 293 295 293 294 295 295 295 297 297 296 294 294
323 322 323 324 325 326 326 326 325 326 324 322 321 321 323 323 323 323 325 323 326 327 326 325 325 322 321 321 321 318 308 306 299 301 306 319 319 318 317 318 317 316 312 311 308 308 307 307 305 304 302 301 301 301 300 299 300 299 298 297 296 297 295 294 295 294 294 296 295 295 296 294 296 295 294 293 292 293 295 297 296 296 297 298 299 298 296 294
321 322 322 323 323 325 326 327 326 326 323 323 322 322 323 323 323 323 324 323 325 326 326 325 325 324 321 320 319 311 308 300 298 303 307 316 319 319 316 316 315 314 311 308 308 308 307 306 304 302 302 300 301 300 297 298 297 299 295 294 295 295 294 294 294 292 293 293 294 295 292 293 297 295 293 293 290 292 297 299 299 298 298 298 298 299 297 295
321 321 321 323 324 325 325 326 326 324 323 324 323 322 322 322 323 323 323 324 324 325 324 325 325 324 323 319 317 311 305 292 301 303 315 316 319 320 316 316 316 313 311 308 307 307 306 305 304 301 300 299 297 298 296 297 297 297 294 294 294 294 293 293 294 292 293 293 293 293 294 295 293 293 295 294 292 295 299 299 299 299 300 300 299 299 296 295
321 320 321 321 322 323 323 324 326 324 326 325 325 324 322 322 322 322 324 323 324 323 323 322 322 322 320 321 318 310 301 298 302 305 313 314 314 316 314 314 317 314 309 307 306 305 304 302 302 300 299 298 297 296 295 296 297 297 294 293 292 293 293 292 293 291 292 292 292 294 294 291 292 291 295 293 296 297 299 300 299 299 299 298 297 297 296 296
320 321 321 320 321 322 322 323 325 324 325 325 324 325 323 321 322 323 324 324 324 323 323 322 322 320 319 312 313 302 300 297 302 306 311 314 307 306 310 306 307 308 306 305 304 304 304 301 300 301 299 299 298 297 297 297 298 297 294 293 292 293 292 292 292 292 292 292 293 292 291 291 293 292 293 292 295 296 297 298 299 298 297 296 296 296 297 296
321 321 320 320 320 321 322 323 324 324 325 324 324 324 324 322 321 323 323 324 324 324 323 321 321 322 319 312 308 301 296 301 304 305 307 304 304 305 307 305 307 306 305 306 305 305 303 302 301 300 299 296 297 298 298 296 296 297 294 293 292 292 293 292 292 292 291 293 292 291 291 293 294 293 290 293 295 297 298 297 297 296 295 294 295 295 296 296
322 321 320 319 320 320 321 322 323 323 324 323 324 324 325 323 321 322 324 323 323 323 323 322 320 319 317 307 306 299 298 303 305 306 306 304 304 305 305 305 306 307 305 304 305 304 303 302 301 302 301 297 298 297 296 298 295 296 295 294 293 292 292 292 292 292 291 292 292 289 290 292 293 290 289 296 295 295 295 295 296 295 294 295 295 295 296 296
321 321 320 320 320 320 321 321 321 321 322 323 324 324 324 323 323 322 322 323 322 322 322 321 319 313 308 305 301 297 302 303 306 306 305 305 303 302 302 304 306 306 305 303 302 303 303 303 303 303 304 299 298 295 296 295 295 294 294 294 293 292 293 292 292 291 292 292 290 292 290 292 293 290 289 296 294 295 294 294 294 294 294 294 295 295 296 296
320 320 319 320 320 320 321 321 320 321 321 322 323 323 323 322 322 323 323 322 323 321 320 320 317 307 307 303 299 297 303 304 306 306 306 305 302 301 303 305 306 305 305 302 302 303 303 303 304 303 298 300 296 294 293 294 295 293 295 293 294 293 291 292 291 292 291 291 292 292 290 292 290 288 294 297 295 294 293 293 293 294 294 294 295 295 295 295
321 320 319 320 320 320 320 320 321 321 322 322 322 322 322 322 322 322 324 325 318 320 318 317 315 309 307 302 298 302 304 306 305 303 306 307 305 304 305 305 305 305 305 303 301 302 303 304 303 301 302 302 299 296 297 296 294 295 293 293 294 294 292 292 292 291 290 291 292 292 287 293 291 293 296 296 294 293 292 292 294 294 294 294 294 294 295 295
320 319 319 319 320 321 321 321 321 322 322 322 321 321 321 321 321 321 321 323 320 320 319 319 313 311 307 298 300 302 304 306 305 305 304 306 305 303 304 305 305 305 305 303 303 305 304 304 303 301 303 300 296 299 295 293 294 294 297 294 293 291 290 291 292 291 290 291 292 292 286 291 296 296 296 295 295 293 293 294 295 295 295 294 294 294 294 294
319 319 319 320 320 321 321 321 321 321 322 321 320 321 321 319 319 319 321 320 320 319 317 317 313 307 303 298 302 305 312 304 303 302 304 303 302 303 302 304 302 303 304 304 302 303 303 303 303 300 297 299 300 298 296 296 295 295 292 291 294 291 292 290 292 290 290 290 291 291 286 291 295 297 296 295 294 294 293 294 294 295 295 295 295 294 294 294
319 319 319 319 319 319 320 320 320 320 321 321 320 319 319 319 320 318 317 318 315 315 315 316 311 307 303 296 299 308 306 301 300 303 304 304 302 301 303 302 303 302 302 301 303 303 303 302 300 298 296 296 297 296 296 296 294 294 292 288 289 290 291 292 289 291 290 290 290 290 287 290 292 295 294 295 294 294 293 294 294 294 294 294 295 295 294 294
319 317 318 318 319 319 320 320 319 319 320 321 317 313 316 317 320 319 316 316 312 316 309 307 307 308 299 300 303 299 298 301 303 304 303 305 303 302 302 302 301 302 302 301 302 302 302 299 297 299 299 297 297 296 292 291 291 292 294 290 292 288 290 289 289 291 291 289 289 292 288 289 292 295 297 297 295 294 293 293 294 294 294 294 294 294 294 294
319 318 318 318 318 318 319 319 319 319 319 319 318 320 315 316 315 318 316 316 319 318 314 311 308 305 297 300 295 297 300 300 301 301 302 305 302 303 302 301 301 301 301 300 301 299 299 298 298 296 297 296 296 296 290 287 288 288 289 288 290 291 291 290 290 290 290 293 289 290 289 290 292 295 297 297 298 296 294 293 293 293 293 293 294 294 294 294
318 318 318 318 318 318 318 318 318 318 319 318 320 317 318 318 318 314 311 309 310 305 300 300 303 297 297 296 299 300 300 300 300 301 302 303 303 303 302 302 301 300 299 298 299 298 299 298 299 295 293 295 294 294 289 291 290 290 290 289 288 287 288 289 292 290 290 288 288 289 288 290 292 294 295 297 297 295 294 294 293 293 293 293 293 294 294 295
318 318 319 319 319 319 317 317 318 318 317 320 325 324 317 309 308 306 309 305 298 297 298 300 300 299 298 298 298 301 301 300 299 302 303 303 301 301 301 301 301 300 300 297 299 297 297 295 293 291 294 293 292 292 292 291 291 290 290 289 288 288 289 293 291 290 291 287 288 290 290 290 291 293 295 296 295 294 293 293 293 293 293 293 293 293 295 295
317 319 318 318 318 318 317 317 317 317 315 321 317 312 304 305 301 299 301 299 302 301 301 300 298 297 296 298 300 299 297 298 300 300 301 304 301 299 299 299 299 298 296 297 298 300 298 293 293 293 292 291 290 291 291 291 290 291 289 288 288 290 288 292 290 289 290 287 287 290 289 289 291 293 295 295 294 293 293 292 293 292 293 293 294 295 296 296
318 318 318 318 318 317 317 317 316 317 315 322 313 307 308 309 308 310 308 300 301 303 301 298 298 298 299 299 299 298 297 297 297 300 303 304 301 297 300 297 297 295 297 297 297 296 296 291 293 291 291 292 291 290 290 290 291 290 287 288 286 289 291 292 290 288 289 288 287 289 286 288 291 293 295 292 292 293 293 292 292 292 293 294 295 295 296 296
317 318 317 318 317 317 317 317 317 316 319 313 311 309 308 312 312 312 306 303 299 302 302 301 299 298 298 300 299 299 296 295 296 298 298 301 300 297 299 298 297 297 296 296 293 294 292 295 290 290 292 290 290 290 289 291 290 288 288 287 286 291 287 285 288 287 290 286 286 287 285 288 291 295 293 292 292 292 293 292 293 294 293 293 294 295 295 295
317 317 318 317 317 317 316 315 313 317 312 315 311 310 311 314 312 310 310 300 299 300 301 300 297 298 296 296 299 298 297 296 296 296 300 300 298 298 299 297 296 295 296 295 294 293 293 292 290 290 290 290 290 289 289 289 288 292 290 288 287 288 288 286 287 289 290 291 289 286 285 287 292 291 291 291 291 292 293 292 293 294 295 295 296 296 296 294
317 316 317 317 316 317 315 314 313 312 309 314 309 310 312 312 312 311 305 300 298 299 300 302 298 298 298 300 301 298 297 297 296 297 298 298 297 300 298 297 296 295 296 294 295 294 294 288 290 290 289 288 290 289 289 289 286 289 292 290 288 288 286 287 287 286 286 287 285 287 282 286 291 291 291 292 293 293 292 294 295 294 294 295 294 293 294 295
316 316 317 317 316 315 316 312 313 315 310 308 308 310 311 312 313 312 304 293 288 296 301 296 300 296 300 299 299 299 296 296 295 296 298 297 298 300 297 297 295 295 295 294 294 293 292 288 289 290 289 289 288 288 291 289 286 286 287 286 288 286 285 286 285 285 283 282 286 287 281 281 290 290 290 291 292 292 294 293 292 292 292 293 293 294 294 293
316 316 316 317 316 315 314 307 312 313 309 309 310 313 313 313 312 313 298 290 286 294 294 299 296 298 301 298 297 301 293 295 296 297 296 297 298 302 296 297 297 295 296 297 291 290 289 287 287 287 288 288 289 288 290 288 286 286 285 287 285 285 284 285 284 284 283 288 289 286 285 282 283 288 290 292 290 290 290 291 291 292 292 293 293 293 293 293
316 316 316 315 314 313 308 311 313 311 308 308 310 311 312 312 312 310 296 282 282 299 294 298 299 301 298 298 297 297 295 296 296 295 296 297 297 299 295 296 295 296 293 292 286 292 291 287 287 287 287 288 288 288 288 290 286 287 285 287 285 285 286 285 284 283 285 282 282 284 287 281 283 287 290 291 287 288 288 289 290 291 291 292 292 292 292 293
316 316 315 314 313 312 319 313 310 309 308 308 308 311 312 314 308 298 290 281 296 294 305 297 301 298 298 298 296 296 296 298 294 297 297 297 297 298 295 297 295 294 294 296 289 289 291 288 290 290 288 287 288 287 288 289 286 288 288 287 287 286 285 286 283 283 283 281 280 283 285 280 282 288 287 288 287 286 286 288 289 290 291 291 291 292 292 293
316 316 317 315 315 320 315 317 309 307 306 307 309 309 312 307 302 291 285 281 298 289 297 300 298 297 299 296 297 294 295 296 295 298 296 296 295 298 293 296 296 293 291 293 292 291 289 290 291 289 288 288 286 286 287 288 287 288 288 286 287 284 284 284 284 284 282 277 282 282 284 282 278 286 286 285 284 285 287 288 289 290 290 290 291 291 292 292
312 313 315 316 318 315 310 309 311 308 307 309 312 312 310 304 292 287 281 288 295 296 299 296 296 299 294 293 292 297 295 294 295 296 295 295 295 296 296 294 295 292 290 289 288 291 290 289 289 290 290 289 288 288 288 287 288 287 286 286 286 286 283 283 283 284 278 280 280 283 282 284 277 283 285 287 287 287 287 286 287 288 289 290 291 291 292 292
311 311 312 315 311 317 311 313 310 310 309 309 312 309 302 290 291 284 284 297 290 293 293 293 293 292 292 291 290 292 289 293 293 293 291 292 292 293 292 289 289 286 287 289 288 289 287 288 289 289 289 287 288 287 288 287 288 286 286 287 283 281 284 280 281 278 280 280 280 281 283 280 281 285 288 287 287 287 288 288 288 288 289 290 290 291 291 292
311 309 310 310 312 313 310 311 310 308 309 310 309 304 296 288 281 290 287 290 287 292 292 291 292 291 291 290 291 291 290 290 294 293 291 292 291 292 288 291 290 289 283 288 287 288 287 284 288 288 288 289 288 285 287 285 286 287 285 284 281 279 277 275 278 281 281 280 282 282 282 278 284 286 289 287 288 289 288 289 289 290 289 289 290 290 290 291
312 313 311 306 309 309 310 311 310 310 312 310 305 300 290 284 284 287 286 290 290 293 293 292 292 292 290 290 290 289 289 291 290 291 291 290 290 289 290 289 291 290 287 287 285 286 283 284 286 287 286 286 287 287 284 284 285 286 287 284 283 281 278 273 277 275 277 280 281 281 279 278 280 283 289 288 289 289 290 290 290 290 290 290 290 290 290 290
307 313 312 311 313 311 312 311 312 310 311 307 301 291 285 285 288 288 288 290 291 291 292 289 290 289 291 289 289 289 286 287 290 289 292 290 289 289 289 288 289 289 290 285 287 285 286 285 286 285 285 286 286 286 285 286 286 286 286 287 283 282 286 278 281 279 278 278 278 278 277 285 285 289 290 289 289 288 289 289 289 289 289 289 288 288 289 289
312 313 315 310 310 311 312 312 308 310 309 303 294 288 286 288 286 288 290 291 292 289 290 290 288 289 289 288 287 286 290 286 290 289 289 290 290 288 289 288 287 287 287 285 287 284 286 284 285 286 286 285 284 285 286 287 281 285 284 283 283 285 284 280 281 283 280 278 275 283 282 285 290 288 288 288 288 287 287 288 288 288 288 288 287 288 288 288
310 312 309 310 312 311 310 312 309 308 309 301 292 287 289 289 291 291 293 291 290 289 290 286 288 286 286 287 288 286 287 288 287 288 287 289 288 288 288 287 286 288 287 285 286 287 282 284 286 286 284 283 285 284 286 287 287 285 282 284 286 285 284 282 276 279 278 275 278 282 279 281 281 279 286 287 285 286 286 286 287 287 287 286 286 287 287 288
308 308 306 309 308 309 310 312 310 312 305 297 289 291 292 290 290 292 291 290 290 289 288 288 288 288 286 285 286 285 288 286 290 290 288 291 286 289 288 287 286 286 285 288 286 286 287 281 285 282 284 284 285 286 285 286 287 284 283 287 282 279 279 282 279 272 274 273 276 279 282 281 282 282 285 283 283 283 285 285 285 285 285 285 286 287 287 288
309 306 302 308 310 308 310 310 312 307 301 291 291 289 294 291 290 290 290 289 290 289 287 288 286 288 287 286 286 286 284 286 287 287 286 288 285 289 286 287 287 286 286 288 286 288 289 281 283 283 284 284 285 285 283 283 285 286 287 285 286 283 280 279 280 279 278 273 274 276 280 277 285 284 283 282 283 284 284 284 284 285 285 285 286 286 287 287
306 301 301 308 310 310 309 311 308 302 297 289 291 290 290 290 290 290 290 290 290 289 288 287 289 286 288 287 286 286 287 286 287 287 287 288 286 289 287 287 286 286 288 286 285 289 285 288 279 285 284 285 283 285 284 286 283 282 282 283 282 282 283 282 281 278 277 275 275 274 273 280 283 286 284 284 284 284 284 283 284 284 285 286 286 286 286 286
306 300 301 310 312 311 315 309 302 296 292 291 291 291 291 292 291 291 292 292 292 292 288 289 289 287 289 287 286 288 287 288 287 287 288 288 287 285 286 285 285 285 286 285 284 287 284 285 281 285 284 284 285 283 283 284 284 284 284 283 284 282 279 276 276 283 278 277 275 274 272 280 286 288 286 286 286 285 285 284 284 284 285 285 286 286 286 285
302 294 301 310 309 315 308 297 291 290 291 291 292 293 293 291 292 291 291 291 290 289 291 289 290 289 289 288 289 288 287 287 287 286 288 286 287 287 285 285 286 285 284 285 285 286 285 285 283 281 283 285 283 282 283 283 284 284 284 283 284 284 282 278 273 277 277 278 276 277 273 276 287 288 288 288 287 285 285 285 284 284 285 285 285 286 285 285
300 298 305 310 308 312 302 295 291 291 291 291 290 291 292 292 289 290 291 291 290 291 290 290 290 289 289 288 289 288 288 286 288 286 288 288 286 285 286 285 285 286 284 286 284 286 285 283 281 283 287 284 283 283 283 282 283 283 283 284 283 281 282 280 279 278 275 277 275 276 273 278 285 289 289 288 287 285 286 285 284 284 284 285 284 284 284 284
302 301 303 312 311 313 299 290 290 290 291 291 291 291 291 292 290 290 290 290 290 289 290 290 290 290 288 290 288 287 289 284 289 287 287 286 285 285 284 285 283 284 284 284 284 286 282 286 283 280 281 284 281 281 281 282 282 283 283 283 282 281 279 278 277 279 274 276 277 275 271 278 284 288 289 288 286 284 284 285 285 283 283 284 283 284 284 284
300 302 300 303 307 305 297 298 292 291 290 290 289 291 290 290 291 290 290 290 290 289 288 288 288 289 289 289 288 289 289 287 285 287 283 284 285 284 285 285 283 283 286 285 284 286 283 284 283 278 276 274 275 277 279 281 282 284 284 280 280 279 279 277 276 278 273 277 277 275 275 281 286 287 286 286 284 283 284 284 284 284 283 283 283 283 283 283
297 290 299 300 301 301 295 293 295 294 290 288 287 289 288 289 289 290 290 289 289 289 288 290 289 289 289 288 288 288 288 289 286 285 284 285 285 286 285 286 285 285 284 284 284 284 283 284 282 282 280 279 281 283 285 283 283 279 282 282 279 279 279 278 278 275 274 277 276 278 278 279 280 282 282 283 282 281 281 282 281 282 282 283 283 282 283 283
299 293 293 292 297 298 293 296 295 293 291 291 288 288 286 288 288 287 291 289 289 289 289 290 290 288 288 288 288 288 288 287 288 284 284 284 285 283 284 286 286 286 281 283 284 283 283 281 283 283 282 283 284 283 284 284 280 281 281 280 280 278 277 276 276 276 280 275 273 280 280 276 278 280 282 281 281 281 281 281 281 281 281 281 281 281 283 283
296 295 296 294 293 292 293 292 293 293 291 292 288 289 288 289 289 286 288 288 289 288 288 289 288 289 289 289 288 285 286 287 287 284 283 282 283 284 284 285 285 285 283 284 284 282 282 280 280 277 280 281 282 282 283 283 282 281 280 280 279 280 277 275 276 279 279 275 273 278 279 277 279 281 281 281 281 281 280 280 281 282 281 281 281 280 281 281
298 294 294 293 294 291 291 292 291 294 293 292 290 290 288 289 288 288 289 288 288 288 289 286 289 290 289 289 288 285 287 283 284 284 281 283 283 283 284 284 284 286 284 283 283 282 281 282 279 277 278 280 282 283 283 281 280 280 280 280 280 279 279 278 278 279 278 277 278 278 278 278 280 281 281 282 283 281 280 281 281 281 280 280 280 280 281 280
297 297 293 294 295 291 289 289 293 293 293 290 289 292 290 290 289 289 288 289 287 289 289 288 290 288 289 288 289 285 287 288 285 283 283 283 284 284 284 284 284 284 285 282 283 282 281 280 279 279 278 280 282 280 281 281 280 278 279 280 280 280 279 280 279 279 279 278 279 278 277 276 283 282 281 282 282 281 280 280 280 280 280 279 279 280 280 280
300 297 303 296 291 291 288 290 292 293 290 291 290 290 290 290 289 290 289 290 289 289 289 289 289 289 288 288 288 288 289 287 288 287 287 285 283 285 283 283 285 283 283 281 282 281 280 281 279 279 278 280 281 280 280 281 279 279 278 278 278 278 276 278 276 279 277 275 277 277 275 277 281 282 281 281 280 279 278 279 279 279 279 279 279 279 279 278
299 296 297 299 293 288 290 289 291 292 289 291 291 291 292 292 290 290 289 290 289 290 290 289 290 288 289 287 287 288 287 287 287 287 286 286 287 286 286 285 285 284 284 283 279 282 281 281 280 280 277 278 281 281 281 281 277 274 276 277 278 279 279 279 280 280 279 279 276 274 275 279 279 280 278 278 278 278 278 278 278 278 279 279 279 278 277 278
Wind_Speed
7 7 7 7 7 7 7 6 6 5 4 4 4 4 5 4 5 5 5 5 4 4 6 7 6 3 3 4 4 8 5 3 12 11 12 6 4 11 12 12 13 14 10 8 9 9 7 0 2 1 3 2 2 1 1 1 3 3 4 4 3 2 2 5 5 3 3 4 6 8 8 8 7 6 5 3 8 10 8 8 9 10 11 9 4 6 6 7
6 6 6 6 6 6 5 4 3 2 1 1 2 3 3 4 4 4 5 4 4 5 6 7 8 3 4 5 6 7 5 6 9 14 10 2 10 12 12 12 11 11 9 8 6 4 5 3 4 4 4 2 1 2 4 2 4 4 3 4 3 5 4 4 4 5 3 2 3 5 8 8 3 5 6 6 7 10 11 13 12 13 13 12 10 9 8 8
6 5 5 5 4 4 3 2 1 3 1 1 1 1 1 2 4 4 3 4 4 3 5 6 8 7 5 6 7 4 4 7 4 12 10 15 13 14 13 12 11 10 7 7 7 6 5 5 4 5 1 1 3 2 3 4 5 2 4 4 5 4 4 4 3 3 3 2 3 5 7 7 2 3 6 7 9 6 11 9 11 13 13 14 15 13 12 11
6 6 5 4 4 3 2 2 2 4 3 2 1 1 1 2 3 3 3 3 5 5 4 7 7 9 7 7 4 4 6 8 5 7 11 14 14 13 13 12 10 11 6 8 6 4 2 2 4 4 1 1 2 1 1 5 4 3 4 4 4 3 1 4 2 3 2 3 2 4 3 7 5 4 5 5 8 12 13 14 12 8 9 10 12 15 13 13
6 6 5 4 4 3 1 2 2 2 3 4 4 1 1 1 3 3 3 4 4 6 5 5 7 10 8 5 3 4 6 7 4 6 13 14 15 14 12 11 10 8 6 4 6 4 5 4 2 1 3 1 2 2 4 3 4 2 4 3 2 1 1 4 3 4 2 3 2 3 5 5 4 3 8 10 11 10 5 6 3 7 8 8 8 13 14 14
6 6 6 5 4 2 3 3 3 2 3 4 5 4 2 1 3 4 4 4 5 6 6 4 5 10 10 2 5 6 4 3 4 9 13 14 13 13 11 9 10 7 7 7 5 4 5 3 5 1 1 1 4 2 4 3 2 2 3 1 1 2 2 3 3 3 3 2 3 4 2 2 4 8 8 12 17 14 6 1 2 4 3 4 4 3 12 12
6 5 5 5 4 3 3 3 2 3 4 5 5 4 4 1 4 5 4 4 5 6 7 4 4 8 9 4 8 7 4 6 4 10 14 15 16 11 9 8 8 6 5 7 4 5 3 3 2 2 1 3 3 3 3 2 2 5 2 3 3 1 2 2 3 2 1 4 2 4 4 6 6 9 4 12 17 15 15 6 3 1 0 1 5 7 10 12
6 5 4 5 5 4 3 2 3 3 5 6 6 5 5 5 4 4 3 5 6 7 8 5 3 6 5 5 4 4 5 6 8 10 13 13 15 14 9 5 5 5 2 3 4 4 4 4 3 1 1 4 3 1 2 4 1 1 2 2 4 1 3 3 2 2 1 2 3 4 7 9 8 9 9 17 16 15 14 13 7 6 5 4 7 9 11 11
6 6 5 4 5 4 3 2 2 3 3 4 5 4 5 6 3 3 3 5 7 7 8 8 5 4 4 5 8 4 5 4 7 9 12 14 15 12 8 2 7 2 2 2 3 5 7 2 1 2 1 3 1 2 2 4 4 4 5 3 3 3 4 3 3 2 1 2 3 7 10 10 8 5 16 22 20 14 10 9 11 9 9 11 11 11 11 10
5 6 5 4 3 4 4 4 3 3 3 3 4 5 4 6 3 4 4 5 7 7 9 9 5 4 5 8 7 6 4 6 4 7 11 11 13 10 8 9 7 4 2 5 5 8 6 5 5 3 6 6 1 2 4 4 3 1 4 1 1 3 3 4 3 2 1 5 3 9 12 10 3 2 9 1 4 5 2 6 7 9 11 11 11 10 10 11
6 5 5 3 3 4 5 4 4 4 5 5 5 5 5 5 4 5 4 5 7 7 8 11 7 3 5 8 9 2 3 5 3 6 10 10 10 12 12 11 9 6 5 8 9 8 7 5 5 2 3 3 4 4 2 3 0 2 2 2 2 4 4 4 4 2 2 2 1 9 17 12 7 4 14 12 5 4 4 5 7 9 9 9 10 11 10 9
6 5 5 4 4 4 5 5 5 6 7 7 7 7 6 6 4 3 3 4 6 6 8 10 7 4 4 9 8 5 2 3 5 4 7 8 6 7 8 9 10 10 6 7 7 8 8 6 5 2 1 1 1 3 3 2 2 3 3 4 5 5 5 6 3 1 1 2 4 10 19 13 12 10 16 11 5 5 4 7 7 9 9 8 8 8 8 8
6 6 5 4 4 5 5 5 6 7 7 8 8 7 6 6 5 4 5 5 1 3 6 8 9 2 6 1 4 3 1 2 2 4 7 5 4 3 5 8 11 12 10 7 6 5 4 4 5 4 4 3 4 1 5 4 3 3 5 3 6 6 5 5 1 1 4 2 7 8 6 6 13 17 6 7 6 5 6 7 8 8 7 6 7 6 7 7
6 6 5 4 4 4 4 3 4 5 7 6 5 4 4 4 5 4 4 5 5 5 7 10 5 3 1 4 3 1 3 3 4 3 10 9 5 2 2 7 8 7 7 10 7 5 6 5 9 9 4 4 2 3 6 4 3 3 2 2 2 6 2 3 1 2 3 3 4 3 5 12 11 7 8 7 6 7 8 8 9 7 6 6 5 6 6 7
5 4 4 4 4 3 3 3 3 4 5 4 3 3 3 5 4 4 3 4 4 6 9 8 4 4 1 3 2 3 0 4 4 7 7 10 9 2 4 3 5 6 6 6 4 2 1 3 4 0 3 1 5 4 4 4 4 3 3 1 2 2 3 6 2 1 4 3 1 4 6 9 14 14 10 4 6 6 10 12 11 10 9 7 5 5 5 5
5 4 3 4 4 3 3 3 2 3 5 5 2 3 4 4 3 3 2 2 7 5 4 4 1 5 3 3 3 3 3 2 6 5 4 6 7 6 4 2 1 3 2 3 1 1 2 6 4 2 5 3 5 4 6 4 4 2 1 4 4 4 5 2 5 2 3 0 3 2 8 14 12 8 6 7 7 9 11 12 11 11 10 9 7 5 5 5
3 3 3 3 4 4 4 4 4 4 4 5 1 1 2 5 5 3 4 4 3 2 2 2 2 0 3 3 2 3 3 3 3 4 6 3 6 7 7 4 1 1 3 4 3 3 2 2 2 3 4 3 2 3 5 3 1 1 1 3 6 3 5 6 6 2 1 1 5 5 7 16 20 17 15 8 9 9 10 12 10 8 6 6 6 6 5 6
3 3 3 4 4 4 4 5 6 6 5 4 4 1 4 5 5 3 5 3 2 2 2 2 1 1 3 3 1 4 2 2 5 6 4 3 2 7 6 3 1 3 4 3 4 3 3 2 4 3 1 2 4 3 3 4 4 7 7 5 6 8 7 7 7 5 5 1 6 9 13 21 22 18 13 14 12 9 9 8 8 7 5 4 3 4 5 5
2 3 4 4 4 4 5 6 7 7 6 3 4 1 3 4 4 4 5 3 2 3 3 2 3 2 3 3 2 2 1 2 4 5 4 7 4 6 5 4 5 5 2 5 3 3 3 3 4 5 3 1 3 4 3 3 4 6 6 7 8 6 7 9 5 4 5 7 9 10 12 18 21 18 16 12 6 6 6 6 4 3 2 2 1 2 3 3
2 4 5 5 5 5 6 7 7 6 7 4 2 2 3 4 4 4 4 10 8 3 2 4 2 2 3 4 4 5 1 2 2 4 4 4 5 3 7 4 4 3 2 2 4 4 2 3 3 2 4 4 3 4 3 2 3 4 3 6 7 8 10 5 5 4 3 3 7 8 13 20 20 15 14 8 4 3 2 2 3 2 2 1 1 1 1 3
3 5 6 6 6 7 7 7 6 5 6 3 3 4 3 5 6 2 4 4 2 3 3 4 3 5 4 4 5 8 3 4 1 3 5 4 4 5 2 3 3 5 3 0 2 2 3 5 1 5 5 4 4 3 2 1 1 3 6 7 8 7 10 4 0 5 1 3 6 9 12 21 19 13 10 4 2 3 5 4 4 4 2 2 2 2 2 3
4 5 6 7 7 8 7 5 5 4 4 1 2 4 2 3 3 2 3 1 3 2 2 2 2 1 2 1 2 4 5 3 4 4 4 10 2 4 4 4 2 4 3 1 4 4 4 3 4 4 4 4 3 2 1 2 3 4 6 7 5 6 4 2 6 5 3 2 8 4 10 18 18 14 4 3 2 3 3 3 3 4 3 3 3 3 2 1
4 6 6 7 8 8 7 5 3 6 2 2 2 2 2 3 2 2 3 3 3 0 1 3 1 3 1 2 1 4 4 2 2 6 9 10 3 3 4 5 2 1 2 2 4 5 7 4 2 3 2 2 2 0 1 3 5 6 7 4 5 5 5 3 3 2 4 3 7 8 11 16 14 7 4 3 2 1 1 1 1 2 2 3 5 6 7 9
5 5 6 8 9 7 6 4 5 2 4 3 3 3 2 2 3 4 4 2 1 3 3 2 2 2 3 3 3 5 5 2 3 4 10 8 3 3 3 5 3 3 2 2 3 5 5 4 4 1 1 2 3 1 3 4 7 6 7 6 7 7 4 3 7 8 12 10 3 8 10 12 5 3 6 3 3 1 2 2 2 2 1 4 5 5 6 9
5 6 7 9 10 4 6 3 1 2 1 3 3 0 1 2 2 3 3 1 2 2 2 2 3 0 2 2 3 3 3 2 3 3 6 7 5 4 2 1 3 2 3 2 4 6 3 3 2 2 2 2 4 5 6 5 8 7 7 6 5 5 6 7 8 10 8 2 5 5 7 3 7 4 7 6 4 5 3 3 7 8 8 8 10 12 12 11
7 7 8 9 9 8 2 1 2 1 1 1 2 1 1 2 2 2 2 2 1 2 4 1 1 2 2 1 4 2 1 2 3 3 3 4 2 3 0 2 2 2 2 1 4 3 2 2 2 1 3 2 4 6 2 3 7 6 1 5 4 3 4 6 8 7 5 7 2 2 5 6 7 1 7 6 8 9 6 10 13 12 11 11 10 11 10 10
6 6 6 8 10 6 2 1 2 1 1 1 1 2 2 2 2 2 3 1 2 1 3 2 2 1 2 2 3 2 3 2 1 1 1 3 2 1 4 2 2 2 1 2 3 3 4 3 2 2 3 4 5 6 6 6 2 4 4 1 3 4 6 7 5 5 8 6 7 4 8 6 7 5 6 6 9 10 11 11 11 11 11 11 11 12 12 11
4 5 5 6 7 3 1 2 1 2 2 2 3 2 3 1 2 3 2 2 0 1 2 1 2 1 2 1 2 3 2 4 3 2 2 1 3 3 3 3 4 1 3 2 7 3 2 3 5 4 5 4 6 3 5 3 4 3 1 3 5 4 8 6 5 6 6 5 5 6 6 4 4 6 3 6 8 9 9 9 10 10 11 11 11 11 11 10
4 4 4 5 5 5 3 2 2 0 1 3 3 3 1 1 2 2 1 2 1 1 1 1 1 2 1 3 1 2 1 2 4 4 1 3 1 3 4 2 1 0 1 4 6 2 1 2 1 3 2 5 5 3 4 1 7 4 2 3 5 6 6 6 4 5 3 3 5 7 6 4 6 3 8 6 7 7 6 8 8 9 10 10 9 10 10 10
6 5 5 6 5 1 2 2 4 0 2 2 3 3 2 2 3 2 1 3 2 0 1 2 3 4 4 5 3 2 2 1 0 4 1 2 2 3 2 2 2 3 4 2 6 3 3 1 1 2 4 3 4 3 1 2 3 3 5 9 8 6 6 5 5 3 2 5 4 5 2 3 4 4 2 3 5 5 5 5 6 6 8 9 9 10 10 10
8 8 6 6 2 1 2 1 2 1 2 2 3 4 4 3 2 2 3 1 1 1 2 1 1 3 5 5 3 3 2 2 3 5 2 2 3 3 2 2 2 4 4 2 4 4 4 3 2 1 3 2 3 2 3 1 1 3 5 7 10 7 4 3 3 3 3 2 6 3 2 5 4 1 7 9 9 7 5 4 6 6 9 9 9 9 11 11
10 12 13 7 1 3 3 2 2 1 2 4 3 3 3 2 2 4 0 1 2 2 2 2 2 2 2 2 3 4 4 3 2 3 4 2 4 4 1 3 2 4 3 0 1 5 4 4 3 5 1 0 2 5 4 3 4 4 6 7 6 8 5 5 5 4 5 3 5 3 4 5 9 11 7 11 11 10 6 5 6 7 10 11 11 12 12 11
4 5 10 8 2 4 3 2 1 1 3 4 3 3 4 2 2 1 1 0 0 3 1 1 2 3 3 4 1 3 2 2 2 1 2 2 3 2 3 1 3 3 5 5 8 7 2 4 3 3 2 1 3 4 1 3 4 4 4 4 5 7 6 9 8 6 7 6 4 4 6 8 13 11 8 12 11 9 7 6 4 5 9 11 11 11 11 12
9 5 4 2 5 3 1 1 1 3 3 1 3 4 2 3 1 2 0 2 2 0 2 1 3 3 2 3 3 5 2 3 3 2 1 1 3 2 3 2 3 1 1 6 5 4 5 2 4 4 1 2 3 2 2 3 6 5 2 3 3 3 4 8 6 9 8 9 2 2 2 4 6 4 10 12 10 8 6 5 5 7 9 9 9 10 11 13
4 4 4 2 1 2 2 0 1 2 2 3 4 2 2 2 1 2 0 3 2 1 2 1 2 3 2 2 2 0 1 1 1 5 3 3 1 4 4 3 2 4 1 3 2 2 5 4 3 3 3 1 3 3 1 4 6 2 2 2 4 3 3 8 8 10 8 8 7 5 4 2 2 9 10 10 9 7 7 7 8 8 10 10 10 12 12 12
3 1 1 2 3 3 3 1 2 1 2 3 3 2 3 1 1 2 1 1 1 3 5 3 3 3 2 2 2 1 2 1 2 3 2 2 3 2 3 3 4 5 3 2 4 3 3 4 3 4 2 3 4 1 1 1 2 3 2 3 3 3 3 7 10 7 3 6 10 6 6 5 4 9 10 10 7 9 6 9 10 11 13 15 14 13 13 13
2 1 1 2 1 4 4 1 1 1 3 5 2 2 1 0 3 2 3 3 2 3 4 4 1 3 2 1 1 0 1 2 2 3 1 2 2 4 2 3 3 2 5 3 1 2 2 7 5 3 3 3 1 2 1 3 2 3 4 4 2 2 3 3 5 4 6 9 8 1 7 6 4 5 9 9 5 10 10 12 15 15 16 17 15 14 15 16
1 1 1 1 4 5 4 2 2 4 5 3 3 3 1 1 2 2 2 1 2 1 2 3 0 1 0 2 1 1 2 2 2 2 5 2 2 2 1 2 3 2 1 1 2 1 3 7 2 2 4 3 2 2 4 3 3 4 4 3 3 2 2 4 1 6 7 8 8 6 6 7 5 5 6 4 12 14 15 14 14 15 15 15 15 16 16 17
1 2 2 2 2 4 3 2 3 4 3 2 1 2 2 2 2 2 2 2 1 3 3 2 2 2 1 2 1 2 1 2 3 2 4 3 2 3 2 3 2 1 1 2 3 2 3 4 2 1 1 3 3 4 3 4 3 1 2 4 1 3 5 5 2 4 3 12 10 8 4 7 1 2 7 9 7 11 12 12 13 14 15 15 15 15 16 16
2 2 1 2 3 4 3 2 3 2 2 2 1 1 1 1 2 3 0 2 2 2 1 1 1 2 1 1 2 3 2 2 4 2 3 3 3 4 3 2 3 2 1 1 3 2 2 3 6 2 1 1 3 7 3 3 1 3 4 3 2 2 2 2 3 5 7 8 9 11 10 2 5 6 9 8 10 11 12 12 12 13 15 15 16 16 16 18
1 2 1 2 6 4 3 2 1 0 0 2 1 1 0 2 1 2 2 1 1 1 2 3 4 2 3 2 1 1 3 3 1 2 2 0 3 1 5 4 4 3 1 1 2 2 3 5 7 6 6 5 2 6 4 4 3 4 3 3 2 2 3 4 7 3 2 4 7 6 12 5 5 6 6 8 7 9 11 13 14 15 16 16 15 16 17 18
2 2 2 4 6 5 2 1 1 0 1 1 1 2 1 1 2 2 1 2 1 1 2 2 2 3 3 3 4 1 3 3 0 2 1 2 2 4 3 3 3 3 2 1 1 4 2 4 6 8 8 8 5 4 4 3 2 2 3 2 2 2 1 4 9 2 1 3 3 5 11 8 3 6 5 10 11 12 12 14 15 15 16 16 16 18 18 17
1 2 2 4 4 3 3 0 1 0 0 2 1 1 1 1 1 1 1 1 1 0 1 3 2 2 1 2 1 2 1 2 2 1 2 3 2 5 2 3 3 3 3 0 2 2 1 3 6 9 10 5 5 5 4 1 1 2 4 3 2 3 2 5 6 5 6 8 7 8 9 6 7 3 2 13 11 11 11 14 16 16 15 16 19 19 18 18
1 2 1 1 1 2 2 1 1 0 1 2 0 2 1 2 1 1 1 1 1 1 2 1 1 1 2 1 3 2 2 2 2 2 1 1 0 2 3 2 3 1 2 2 1 4 3 2 2 8 7 3 5 3 2 2 1 2 1 3 2 3 3 1 1 3 6 7 11 7 12 4 7 5 11 15 14 14 15 16 16 18 17 17 18 17 16 17
1 1 1 2 4 3 2 2 1 1 0 0 0 2 1 2 1 3 3 1 0 1 2 1 1 1 2 1 2 2 3 3 3 3 1 3 1 2 3 2 3 2 4 3 4 4 3 6 5 5 8 8 8 6 5 2 4 6 0 2 1 3 3 2 5 3 5 0 2 7 12 10 11 16 17 18 15 16 16 17 17 15 16 17 17 17 17 17
1 1 1 1 3 3 3 1 2 2 0 1 1 1 1 1 1 1 1 1 0 1 2 2 2 3 2 2 3 3 4 3 3 1 2 1 2 2 2 1 1 2 3 4 5 3 2 3 5 6 7 9 8 7 4 2 8 7 7 2 4 1 1 3 4 5 7 7 8 9 13 16 17 16 18 15 13 16 18 19 18 17 17 17 17 17 17 17
0 0 1 1 1 3 3 1 1 1 1 1 1 2 1 1 2 2 1 2 2 2 1 3 1 2 1 2 3 3 1 2 4 2 2 4 1 2 2 0 1 1 2 2 2 1 2 4 2 5 7 10 12 13 11 7 10 11 9 4 3 5 4 4 6 6 8 8 12 3 9 15 19 19 17 13 15 16 17 17 17 17 17 17 18 19 20 18
1 1 1 2 1 1 1 1 3 1 2 2 0 1 1 1 2 0 2 1 0 2 3 3 3 5 3 3 4 3 0 4 4 2 1 0 3 2 1 3 1 3 2 1 1 1 2 5 2 1 5 6 11 14 12 9 8 7 6 6 5 4 5 6 6 7 8 5 12 16 18 17 17 17 13 13 16 18 18 19 18 18 18 18 21 21 20 18
2 2 1 1 1 2 1 2 3 2 0 2 0 1 0 1 2 2 2 2 2 3 3 2 1 1 3 1 3 3 4 3 1 2 1 2 1 2 2 2 2 1 3 2 1 0 1 5 2 1 8 12 13 10 5 5 2 5 5 4 3 3 5 7 7 7 8 10 14 17 19 18 16 9 11 15 18 18 17 16 16 19 20 21 22 21 19 20
0 2 0 1 2 2 1 1 1 1 2 1 1 2 2 1 1 2 2 2 1 2 1 4 2 2 1 1 3 3 3 4 2 2 1 2 2 3 2 2 1 2 2 1 0 0 2 0 4 2 4 9 0 4 2 3 4 8 3 3 1 3 3 3 5 7 10 12 12 15 18 17 6 13 15 15 15 16 17 20 19 19 20 23 22 20 20 22
2 2 1 2 1 1 0 1 2 2 2 2 2 2 2 1 1 2 0 1 1 2 2 2 3 1 2 2 3 6 5 4 4 3 3 1 4 3 2 1 3 1 1 1 1 0 1 1 2 2 5 7 5 3 5 5 5 6 5 1 2 3 2 3 4 7 10 14 17 15 12 10 11 15 14 14 15 17 18 20 20 20 23 22 21 19 20 20
1 1 1 2 1 2 1 1 2 3 0 3 2 1 2 3 1 2 2 2 2 2 3 3 2 4 3 3 2 3 4 4 3 3 2 3 3 2 2 4 3 2 1 1 1 2 1 3 4 3 6 6 5 3 12 6 0 3 5 1 4 5 4 5 7 10 12 14 13 11 10 10 13 15 18 18 18 18 18 18 19 23 22 20 18 19 19 21
Wind_Direction
41 43 40 40 36 38 37 32 18 16 1 13 47 49 45 43 39 43 28 20 360 336 323 314 315 299 228 253 263 260 316 247 67 51 55 69 337 315 304 304 306 310 317 298 270 249 258 125 340 295 251 242 34 234 66 28 343 252 247 300 270 13 333 48 346 2 42 301 141 175 187 204 214 160 195 173 235 233 246 217 231 224 231 237 133 132 118 133
38 44 47 43 43 43 39 30 16 353 340 346 67 68 81 67 53 41 33 8 8 325 318 312 301 283 266 238 248 268 287 264 68 55 62 349 359 340 327 319 319 313 310 274 289 311 320 351 3 300 256 148 234 66 239 77 314 308 294 258 345 29 55 347 22 34 337 20 124 180 188 213 255 165 158 228 233 212 236 237 227 230 232 227 205 163 164 160
29 28 45 54 57 61 53 24 344 304 287 18 14 17 20 77 82 56 34 354 332 324 300 295 297 282 257 252 241 264 274 244 54 29 12 15 351 345 330 326 321 313 290 305 324 331 5 360 342 293 353 219 9 62 309 48 311 76 298 303 63 44 70 43 18 67 40 6 160 173 191 217 174 230 116 238 275 249 233 250 226 225 237 226 216 192 186 183
14 25 24 28 41 55 70 38 4 349 309 285 254 312 351 35 57 55 27 337 316 303 304 283 282 283 265 248 246 250 251 257 50 341 6 357 346 333 332 322 323 303 281 266 298 315 296 281 344 321 8 1 115 303 315 18 290 59 265 355 45 56 241 98 63 60 49 336 252 187 152 219 208 221 195 252 271 255 245 239 253 247 239 251 223 203 194 196
12 13 15 21 37 38 28 44 42 360 315 295 297 279 269 82 65 45 15 343 324 305 290 288 278 282 277 268 229 229 237 251 57 329 6 344 336 330 323 324 313 303 287 294 283 257 276 317 303 17 303 98 54 165 58 25 20 319 34 26 29 149 268 106 105 35 24 359 279 152 196 229 83 229 232 246 251 267 322 21 233 253 289 291 265 211 189 198
7 9 4 0 4 8 35 42 19 352 314 305 308 313 286 95 70 45 18 1 345 330 308 282 294 276 279 231 196 211 237 276 355 4 347 338 326 320 316 312 299 288 280 282 285 291 282 283 277 258 330 349 17 342 62 359 350 257 121 109 353 12 356 111 136 70 308 244 221 223 273 38 250 270 240 237 241 252 283 81 330 311 343 357 334 253 182 201
3 6 4 358 353 360 46 46 11 330 317 313 309 306 303 331 67 45 19 1 340 321 316 302 275 282 274 313 244 214 83 91 357 358 351 330 321 324 324 295 273 256 260 269 248 271 336 302 344 53 119 114 62 63 35 313 208 308 90 145 110 298 59 90 81 88 319 299 293 2 354 276 270 269 285 252 249 256 267 263 237 222 35 243 246 225 213 213
357 347 357 1 349 355 23 10 349 329 321 319 307 303 330 321 56 43 357 340 324 319 311 328 296 276 302 266 255 111 71 38 359 343 336 330 329 336 330 268 322 290 303 340 324 314 319 329 343 227 11 337 88 351 41 274 35 227 125 165 110 126 98 107 96 151 273 275 303 293 273 266 261 270 310 267 260 261 260 261 240 233 224 226 234 234 229 231
350 339 352 5 350 342 3 360 319 310 312 300 305 322 333 311 24 27 0 341 321 328 329 327 308 299 236 285 254 214 66 24 347 332 344 338 339 333 344 12 340 347 95 10 346 321 287 75 281 322 328 161 132 124 5 310 141 22 74 129 138 122 121 112 157 174 253 281 291 285 268 269 254 312 269 262 269 269 260 254 243 240 247 241 237 237 234 233
349 341 343 2 1 349 3 354 325 315 320 325 313 317 326 310 342 23 8 342 329 342 326 310 315 274 270 246 247 247 81 323 324 348 351 339 341 352 23 13 356 356 348 27 33 5 3 48 3 79 95 80 58 52 305 307 38 313 106 85 169 113 167 158 236 166 200 273 309 292 288 281 143 198 281 101 84 97 191 242 237 239 247 246 242 237 237 237
354 341 339 2 20 12 19 1 345 342 353 346 327 331 340 312 343 19 7 338 334 336 319 310 350 297 261 245 261 94 37 304 351 341 353 342 354 11 10 1 0 19 31 62 51 20 9 52 31 33 264 81 130 56 15 81 283 111 140 148 185 191 208 158 202 209 259 244 41 299 285 266 236 181 247 261 147 157 215 236 238 236 246 252 247 242 238 238
351 341 341 356 19 26 39 16 358 345 347 343 336 347 340 317 354 9 347 329 319 332 326 319 339 319 334 53 53 66 359 346 318 333 350 348 6 349 349 16 26 22 27 73 52 23 10 7 327 349 44 227 111 139 107 184 240 144 207 259 187 210 219 179 231 126 322 285 359 313 291 262 188 226 239 240 153 205 221 246 240 239 241 246 249 245 235 236
342 344 345 4 18 32 43 20 353 338 341 341 341 345 334 331 358 3 356 306 271 314 320 338 319 297 306 8 50 76 300 325 351 288 360 345 307 324 0 33 44 43 34 64 48 16 4 346 305 95 17 305 98 310 105 194 139 217 220 300 278 211 203 122 133 236 253 62 340 318 315 339 191 222 220 126 162 179 226 236 241 235 230 231 235 235 237 233
348 351 348 359 12 30 36 20 352 343 340 328 330 347 337 356 18 15 1 314 331 299 312 320 306 290 248 73 107 79 298 264 263 358 3 343 323 68 70 52 56 60 59 75 72 45 72 68 78 93 38 17 138 147 162 175 190 254 100 290 290 315 93 138 147 94 237 62 315 311 310 296 321 188 186 153 176 207 253 276 279 270 247 228 217 223 231 232
349 351 348 352 10 13 6 360 354 342 321 308 319 356 359 358 23 26 5 286 274 309 305 300 264 288 99 100 151 143 105 267 28 16 10 351 350 269 67 65 63 63 62 66 81 40 306 267 262 96 76 35 110 185 200 209 211 231 242 184 175 320 86 122 39 142 331 101 151 294 264 288 308 319 140 151 203 222 267 285 283 279 279 268 248 234 232 240
339 344 345 354 4 356 345 336 343 326 304 308 336 11 359 315 331 19 5 310 290 311 284 253 263 311 151 120 94 154 216 26 11 359 9 344 346 348 348 330 172 129 192 104 73 219 44 39 52 66 140 193 218 270 292 241 198 236 294 313 324 325 334 211 91 81 358 298 201 274 289 304 301 97 153 190 227 235 269 287 294 291 285 279 270 262 263 260
328 327 342 354 356 347 343 339 328 310 318 307 314 22 347 339 268 275 310 308 330 296 267 315 333 316 272 72 258 221 46 36 348 348 351 0 327 328 304 259 274 277 174 172 174 209 53 227 138 223 233 283 6 283 299 264 294 141 140 315 322 307 322 328 127 59 129 16 307 236 258 264 272 283 295 269 230 261 282 299 309 309 297 282 280 277 271 269
322 307 320 338 343 348 341 334 328 326 340 301 245 288 292 338 308 258 264 248 348 337 349 256 351 335 118 223 232 37 326 347 353 327 301 351 305 320 323 321 298 276 277 244 184 278 5 233 185 309 227 207 231 289 301 332 349 317 329 324 316 328 303 293 304 95 314 212 263 287 264 271 277 291 305 317 312 283 283 308 323 327 319 299 279 269 273 276
324 282 289 305 317 326 332 335 330 340 335 293 189 102 238 254 275 335 17 316 227 200 205 26 346 277 29 44 30 296 15 8 290 296 11 359 313 293 282 264 268 290 256 287 99 306 20 274 222 246 248 162 23 359 319 359 336 310 322 313 305 296 311 312 66 71 13 324 296 283 280 287 292 303 309 319 348 321 312 322 326 336 340 330 265 272 275 278
285 270 266 278 292 305 318 337 342 337 339 242 264 269 233 234 190 180 66 45 49 30 19 351 300 235 185 37 349 351 241 250 306 58 16 20 306 278 257 272 252 229 300 305 340 62 315 286 275 323 25 32 54 37 30 38 1 326 261 266 276 280 282 290 101 71 72 294 271 281 288 286 287 297 304 333 26 348 321 347 15 22 8 36 1 1 325 323
282 275 285 284 294 300 318 336 338 342 318 286 324 293 324 358 301 55 66 59 64 21 359 39 8 11 24 340 356 339 285 176 254 38 26 312 269 291 174 231 242 240 73 316 314 62 256 273 37 50 45 51 75 60 73 70 332 292 282 274 281 277 279 322 128 115 129 330 293 297 293 287 288 302 322 16 0 46 30 27 55 41 46 39 48 51 47 37
279 283 287 288 296 300 307 335 340 307 268 328 316 328 35 41 355 358 298 177 109 38 256 20 263 213 150 312 20 312 273 269 168 41 53 342 171 281 78 282 300 310 94 211 229 219 236 284 79 73 79 87 75 66 19 294 280 243 263 284 288 287 331 298 95 118 156 253 285 336 308 290 294 312 355 78 69 54 36 10 360 355 12 41 53 40 29 86
268 270 274 283 282 289 307 331 358 335 352 335 311 28 44 336 327 306 259 300 111 41 1 20 35 18 84 143 33 285 283 14 346 40 3 339 243 44 327 277 289 34 238 224 294 316 293 98 89 94 125 143 113 142 305 263 236 258 263 251 265 341 352 293 116 179 206 205 290 320 295 279 295 294 107 104 89 23 333 319 322 315 347 359 13 4 351 357
274 274 275 272 273 288 303 311 262 303 42 4 57 56 17 321 312 307 274 290 334 113 31 43 317 331 2 334 13 317 341 72 272 3 16 345 2 346 272 16 285 235 243 36 299 278 307 77 89 145 146 258 273 176 250 262 281 243 232 267 280 297 309 296 310 306 292 250 292 268 262 266 252 186 144 163 167 259 128 178 202 189 263 352 336 352 28 24
283 269 266 268 280 312 278 306 327 52 60 270 76 78 354 321 308 356 297 207 220 134 163 186 221 156 26 202 228 301 79 150 28 7 346 352 356 262 58 19 281 258 81 79 274 256 227 81 107 181 200 212 245 255 218 262 276 288 227 237 301 332 308 303 309 319 309 217 169 313 342 323 150 127 65 87 134 110 112 127 97 63 55 49 44 43 43 38
304 294 287 297 299 302 342 238 104 116 91 9 37 75 312 315 324 306 283 286 265 92 190 129 221 125 281 121 2 30 310 242 47 20 348 21 292 311 129 182 322 317 87 192 311 336 30 114 204 203 216 229 243 262 281 160 279 284 34 12 41 327 301 298 301 325 306 319 118 172 285 279 305 335 94 103 100 93 107 61 66 55 45 46 43 35 30 27
327 308 307 299 302 297 261 6 51 121 241 209 92 326 306 297 26 285 264 218 243 75 326 70 249 56 286 21 344 296 267 85 110 34 259 33 343 184 279 103 174 114 26 274 260 196 144 150 171 240 218 232 253 265 185 196 272 274 65 56 15 273 290 295 295 265 267 300 275 167 229 267 284 122 103 102 91 71 66 61 46 46 43 42 35 31 26 22
344 336 326 333 327 355 353 142 260 332 352 344 337 307 301 316 284 262 258 304 228 347 337 122 32 41 296 346 251 308 357 311 259 113 343 358 269 197 241 298 298 3 162 207 280 61 195 152 200 186 218 249 263 35 106 200 240 346 149 4 305 296 287 280 260 266 286 321 291 167 182 236 244 118 167 141 99 79 76 65 46 38 40 32 23 22 19 15
3 353 344 336 6 39 52 40 359 65 8 324 316 290 285 254 259 290 278 277 87 18 138 123 30 207 283 182 193 80 275 36 303 44 243 239 280 318 259 77 290 96 162 243 264 122 308 41 153 250 240 266 55 40 34 150 253 91 336 241 264 256 240 239 255 270 268 256 278 146 190 254 276 256 166 101 96 88 80 60 44 38 35 25 16 14 10 7
353 342 310 315 310 269 30 98 52 274 289 325 281 271 275 260 232 223 240 261 75 83 265 15 251 333 332 302 190 11 243 84 8 323 201 303 108 181 62 316 228 185 217 206 258 17 102 68 29 235 259 13 346 47 11 343 6 343 279 283 247 211 220 190 257 274 232 241 204 96 132 297 295 299 25 75 67 76 69 56 49 41 31 22 16 11 10 8
30 17 352 287 339 13 301 181 46 69 317 288 287 258 261 235 283 312 243 47 235 83 213 163 1 10 9 2 311 100 146 1 352 340 229 185 198 218 187 208 188 251 243 204 226 169 159 126 215 88 25 276 352 266 135 124 358 307 283 286 299 244 163 236 239 198 252 278 104 26 155 316 264 310 92 95 103 81 66 49 35 24 16 17 11 12 11 9
47 47 34 49 312 275 343 12 10 355 304 299 275 265 263 257 179 248 331 65 250 54 318 16 86 15 2 122 236 348 338 316 17 7 344 357 309 264 93 321 359 304 267 185 10 136 215 188 78 87 358 239 197 270 156 167 187 224 259 268 302 306 287 274 182 241 245 299 121 85 333 282 239 259 106 133 113 90 72 53 30 20 11 10 5 7 4 4
11 56 54 42 299 50 57 26 319 292 269 257 274 261 260 281 248 62 132 238 52 339 110 163 341 338 337 272 149 356 170 309 27 203 323 249 267 108 17 340 349 306 290 25 317 289 74 47 151 136 144 142 282 274 183 187 163 238 290 337 308 313 322 290 291 289 283 118 145 98 34 261 269 278 119 122 102 88 80 65 54 33 17 12 5 5 2 4
24 343 57 6 64 70 21 339 315 276 272 262 281 252 267 278 269 98 13 311 352 23 332 345 311 228 285 320 28 337 235 154 347 5 302 257 210 257 132 71 329 244 208 301 287 7 304 270 144 220 177 49 241 292 357 317 325 335 41 257 304 300 293 299 306 304 307 309 87 158 303 258 285 88 122 110 96 87 71 64 50 32 25 15 9 6 6 3
328 31 120 161 182 88 30 296 291 279 282 280 254 262 262 263 1 347 191 31 54 348 243 131 274 289 186 154 69 43 3 325 196 306 210 274 338 342 5 62 48 327 316 298 87 283 204 255 64 26 49 285 190 61 299 341 270 151 315 314 244 248 331 267 303 307 306 312 295 168 216 251 319 134 128 113 108 74 55 48 21 18 15 9 11 10 5 358
271 138 238 54 357 21 6 19 321 273 300 254 259 249 260 356 340 353 12 306 2 338 322 208 216 256 250 160 116 50 167 291 22 323 205 248 29 354 64 41 31 18 352 317 13 301 312 255 127 112 241 127 59 355 148 295 289 95 237 261 37 8 295 287 285 259 324 257 252 225 244 233 216 157 137 144 127 58 48 25 16 8 6 10 8 2 358 354
317 289 214 27 354 356 339 356 350 281 248 257 258 279 36 72 25 347 37 355 20 327 286 328 77 344 347 306 103 47 135 217 251 288 313 157 141 36 64 88 352 34 44 359 310 90 296 306 150 193 185 112 340 337 311 331 333 323 264 33 318 81 354 275 293 309 268 271 284 244 261 280 311 300 153 135 23 31 21 15 12 6 4 3 358 354 353 350
308 16 17 19 352 329 328 325 319 239 249 249 249 322 131 205 46 22 8 277 236 197 310 278 93 349 356 339 332 25 70 295 48 234 310 5 357 333 5 52 56 34 5 2 301 32 354 297 135 347 85 132 196 236 220 185 288 283 341 337 299 278 257 169 231 286 310 286 293 280 294 277 261 270 157 31 23 12 11 7 4 2 1 353 349 349 349 347
221 264 247 75 338 324 302 285 241 268 240 248 254 258 83 27 54 44 33 318 256 331 275 69 326 52 22 284 350 174 351 317 347 329 313 43 293 41 40 313 108 112 262 311 256 354 241 280 306 130 154 135 200 215 282 137 164 245 270 251 102 273 258 279 297 315 297 282 295 286 157 296 303 80 54 42 26 17 4 3 2 360 353 351 348 348 345 344
291 261 149 44 334 315 304 262 268 240 250 285 347 27 39 3 87 98 124 319 74 297 358 338 123 296 228 322 7 321 103 266 304 331 285 51 339 56 64 18 22 114 352 305 303 330 283 154 290 110 314 172 249 179 273 29 215 165 214 207 150 217 23 285 273 240 266 288 287 293 294 301 74 56 60 39 31 17 10 3 357 353 351 348 349 345 342 338
211 273 49 14 347 316 270 264 3 28 334 89 106 50 350 38 53 106 78 13 330 114 325 336 318 280 12 307 179 63 289 258 251 291 336 33 351 123 46 23 5 34 65 279 228 254 258 243 263 288 259 243 316 35 30 38 26 301 299 281 302 273 257 281 289 123 287 247 277 304 283 287 350 75 71 44 29 24 16 4 355 352 347 346 342 342 339 335
263 264 58 5 346 317 293 248 68 318 283 305 23 359 57 332 251 76 119 124 296 332 142 284 236 287 294 278 348 295 291 293 12 288 139 301 87 353 75 1 358 334 311 334 18 42 328 316 291 275 266 295 94 71 69 45 319 327 306 278 16 303 275 266 281 312 357 250 44 275 288 297 104 113 59 12 15 28 13 4 353 347 342 339 338 336 334 332
279 339 101 330 343 340 292 259 120 250 303 56 210 133 38 202 345 64 282 143 239 147 245 231 338 279 68 324 312 282 294 286 285 308 12 277 54 41 51 339 343 282 257 210 188 100 91 251 266 258 267 109 104 119 107 100 278 216 207 229 235 270 327 281 293 346 307 288 278 271 251 268 136 163 30 1 20 22 5 1 351 341 339 336 335 332 333 333
331 313 125 115 269 300 288 305 10 44 87 140 268 83 3 7 291 176 248 146 286 181 285 313 182 279 324 300 275 302 37 296 114 278 222 50 58 56 57 12 353 56 316 41 326 46 280 203 216 298 302 234 145 131 125 33 241 246 300 124 53 67 62 39 332 294 274 257 255 269 270 297 137 212 340 343 4 2 358 352 349 338 335 333 331 332 333 332
177 175 291 11 22 7 280 22 321 325 66 356 329 247 188 180 30 5 351 36 351 312 271 191 356 322 234 309 288 285 259 279 309 87 1 311 45 139 90 24 345 329 42 15 325 320 257 285 302 294 312 311 316 324 326 326 337 332 340 89 111 180 161 244 266 230 244 118 223 246 269 278 303 325 331 335 353 351 350 344 341 337 332 329 330 330 331 330
5 301 84 125 28 73 90 214 337 314 238 179 249 121 330 213 126 86 288 273 357 296 285 334 205 265 247 240 253 235 231 174 232 337 342 338 104 129 52 50 343 20 34 316 303 294 272 311 265 269 273 284 306 320 352 327 301 296 296 270 155 131 28 270 282 273 270 309 291 268 274 297 306 322 325 339 353 345 338 338 335 334 329 329 330 331 330 329
309 299 348 338 106 60 70 21 8 284 311 57 289 101 210 289 106 161 205 251 139 267 254 248 253 232 179 259 295 287 199 245 224 322 259 274 40 69 136 351 121 147 349 314 221 250 260 265 269 274 266 273 294 293 303 305 283 290 299 312 142 149 169 198 227 268 345 320 281 235 323 319 308 318 326 352 346 338 332 330 330 328 329 330 332 330 329 328
278 51 65 75 290 35 283 111 7 50 68 298 15 147 305 304 193 263 165 267 6 196 278 159 224 245 286 310 340 300 217 262 202 256 62 118 302 164 184 157 211 98 258 189 150 293 298 280 79 65 266 277 278 280 285 286 277 282 297 304 295 138 160 198 240 264 299 271 277 304 308 299 304 313 349 348 345 330 331 330 329 327 326 331 332 329 327 331
12 70 82 311 269 70 7 346 328 311 67 302 50 224 269 278 340 34 350 143 208 185 226 303 127 216 248 271 290 302 325 315 340 98 217 14 314 334 280 167 156 213 225 203 151 66 284 255 63 100 291 286 275 275 285 273 272 280 258 271 276 198 213 221 254 289 291 281 288 294 299 296 304 343 353 343 330 330 327 327 328 330 332 331 329 326 328 332
171 225 114 346 59 91 41 279 322 279 254 146 249 132 309 301 351 143 197 256 246 157 135 254 325 84 1 260 252 264 358 359 349 306 73 80 289 182 291 332 42 146 243 226 30 117 264 277 79 288 284 290 216 116 163 215 267 285 209 227 249 264 265 248 274 294 305 294 295 298 299 297 318 16 344 337 332 331 331 329 332 329 332 330 325 323 327 332
16 8 325 187 192 85 238 190 248 268 255 167 263 95 254 196 354 345 92 7 309 357 182 329 19 285 158 251 243 266 38 356 332 324 335 288 277 38 313 39 358 253 149 192 186 352 212 280 140 252 299 308 133 178 203 265 282 272 203 220 326 303 259 316 319 324 318 304 305 301 290 302 337 343 329 329 335 336 333 331 331 332 327 325 320 330 342 337
99 107 248 287 269 108 269 150 254 255 211 39 0 54 323 57 36 332 247 106 41 35 7 338 359 316 233 200 292 40 18 6 20 359 334 342 322 325 353 353 353 332 278 178 8 250 339 311 307 332 311 298 103 272 313 312 147 202 206 289 356 316 308 308 307 322 313 311 304 308 310 342 337 337 331 330 336 336 338 333 329 322 321 317 335 348 336 331